Current Weather Conditions by Major Hwy


I-84 West to East [Columbia River Gorge] 1000 AM PDT SAT JUL 21 2018 ELEVA CITY SKY/WX TMP DP RH WIND PRES REMARKS 10 ASTORIA, OR CLOUDY 59 53 80 NW12 30.20R 20 KELSO MOSUNNY 62 52 69 VRB6 30.19R 40 PORTLAND, OR MOSUNNY 63 50 62 N7 30.17S 30 TROUTDALE, OR PTSUNNY 62 50 64 W5 30.17S 240 THE DALLES, OR SUNNY 71 47 42 NW17 30.05F 620 HERMISTON, OR SUNNY 73 44 35 S5 30.05F 1,480 PENDLETON, OR SUNNY 70 39 32 S6 30.06F 2,710 LA GRANDE SUNNY 69 39 33 VRB7 30.08S 3,370 BAKER CITY SUNNY 72 38 29 W10 30.08S 2,190 ONTARIO SUNNY 82 29 14 NW7 29.98F
I-90 West to East 1000 AM PDT SAT JUL 21 2018 ELEVA CITY SKY/WX TMP DP RH WIND PRES REMARKS 30 SEATAC AIRPORT MOSUNNY 64 51 62 W5 30.18R 1,730 ELLENSBURG SUNNY 70 40 33 NW17 30.06S 1,200 MOSES LAKE SUNNY 74 35 24 W9 30.04S 1,880 SPOKANE GEIGER SUNNY 67 39 35 S9 30.04S
I-82 North West to South East 1000 AM PDT SAT JUL 21 2018 ELEVA CITY SKY/WX TMP DP RH WIND PRES REMARKS 1,730 ELLENSBURG SUNNY 70 40 33 NW17 30.06S 1,050 YAKIMA TC N/A 72 33 23 W6 30.03F 720 360 PASCO SUNNY 74 40 29 SE3 30.05F 620 HERMISTON, OR SUNNY 73 44 35 S5 30.05F
Hwy97 North to South 1000 AM PDT SAT JUL 21 2018 ELEVA CITY SKY/WX TMP DP RH WIND PRES REMARKS 850 OMAK SUNNY 71 41 33 N18G24 30.06S 630 WENATCHEE SUNNY 69 37 30 NW10 30.05S 1,730 ELLENSBURG SUNNY 70 40 33 NW17 30.06S 1,050 YAKIMA TC N/A 72 33 23 W6 30.03F 1,640 GOLDENDALE* SUNNY 71 47 42 NW17 30.05F *From Dallesport Airport Elev 240 3,080 REDMOND SUNNY 69 27 20 VRB3 30.12S 4,100 KLAMATH FALLS SUNNY 72 48 42 VRB3 30.11S
I-5 North to South 1000 AM PDT SAT JUL 21 2018 ELEVA CITY SKY/WX TMP DP RH WIND PRES REMARKS 150 BELLINGHAM MOSUNNY 65 52 62 SE5 30.15S 100 ARLINGTON SUNNY 65 50 58 VRB6 30.18R 610 EVERETT SUNNY 62 52 69 VRB3 30.19R 30 SEATAC AIRPORT MOSUNNY 64 51 62 W5 30.18R 200 OLYMPIA MOSUNNY 62 50 64 CALM 30.18R 20 KELSO MOSUNNY 62 52 69 VRB6 30.19R 100 VANCOUVER PTSUNNY 62 51 67 NW7 30.17R 40 PORTLAND MOSUNNY 63 50 62 N7 30.17S 200 SALEM SUNNY 64 46 52 VRB5 30.16S 360 EUGENE SUNNY 64 46 52 NE13 30.16S 510 ROSEBURG SUNNY 66 45 46 N8 30.13F 1,300 MEDFORD CLOUDY 68 41 37 VRB3 30.09S SMOKE
Data from:
http://www.wrh.noaa.gov/sew/get.php?pil=RWR&sid=OR&version=0&format=printer
http://www.wrh.noaa.gov/sew/get.php?pil=RWR&sid=WA&version=0&format=printer

Current Observations

Washington State Current Weather Observations   …  Oregon State Current Weather Observation



48 Hour Forecast

Seattle  …  Vancouver  …  Portland
————————————————————————————————————————
Bend  …  Spokane  …  Richland  …  Pendleton  …  Blue Mountains I-84  …  Yakima
————————————————————————————————————————
Goldendale, Washington Higher Elevations  …  Dallesport Airport - Goldendale  …  Bingen - White Salmon - Hood River  …  Index


Top of Page